CW0454 Weather Reports


Display with metric or nautical units.
time (UTC)temp
F
wind
direction
speed
MPH
gust
MPH
rain 1hr
in
rain 24hr
in
rain mn
in
humidity
%
barometer
mb
20260903204403 90 263 4.0 9.0 0.00 0.00 0.00 69 1012.3
20260903203402 89 155 2.0 7.0 0.00 0.00 0.00 71 1012.4
20260903202403 88 266 0.0 8.0 0.00 0.00 0.00 71 1012.5
20260903201401 88 180 1.0 8.0 0.00 0.00 0.00 71 1012.8
20260903200402 87 127 1.0 6.0 0.00 0.00 0.00 71 1012.9
20260903195402 87 140 0.0 7.0 0.00 0.00 0.00 73 1013.2
20260903194401 87 245 3.0 8.0 0.00 0.00 0.00 71 1013.3
20260903193402 87 230 5.0 9.0 0.00 0.00 0.00 70 1013.4
20260903192424 87 253 1.0 9.0 0.00 0.00 0.00 74 1013.7
20260903191423 87 223 1.0 7.0 0.00 0.00 0.00 71 1013.7
20260903190401 87 262 3.0 9.0 0.00 0.00 0.00 70 1013.6
20260903185401 88 240 4.0 10.0 0.00 0.00 0.00 70 1013.7
20260903184401 87 198 4.0 11.0 0.00 0.00 0.00 74 1013.7
20260903183402 86 271 3.0 8.0 0.00 0.00 0.00 78 1013.8
20260903182402 85 254 4.0 9.0 0.00 0.00 0.00 79 1013.7
20260903181401 84 209 2.0 9.0 0.00 0.00 0.00 80 1014.0
20260903180401 85 156 3.0 10.0 0.00 0.00 0.00 79 1014.2
20260903175401 84 243 6.0 13.0 0.00 0.00 0.00 80 1014.2
20260903174400 83 216 2.0 8.0 0.00 0.01 0.00 87 1014.4
20260903173401 82 162 3.0 12.0 0.00 0.03 0.00 90 1014.4
20260903172402 81 203 5.0 9.0 0.00 0.19 0.00 92 1014.7
20260903171423 80 246 3.0 7.0 0.00 0.19 0.00 94 1014.6
20260903170401 79 103 2.0 7.0 0.00 0.19 0.00 95 1014.5
20260903165445 78 191 1.0 5.0 0.00 0.19 0.00 96 1014.9
20260903164425 78 220 1.0 3.0 0.00 0.19 0.00 95 1014.9
20260903163402 78 220 1.0 3.0 0.00 0.19 0.00 93 1014.8
20260903162402 79 220 0.0 4.0 0.00 0.19 0.00 94 1015.6
20260903161402 78 220 2.0 12.0 0.00 0.19 0.00 94 1016.2
20260903160402 79 248 4.0 11.0 0.00 0.19 0.00 93 1016.8
20260903155402 79 242 5.0 11.0 0.00 0.19 0.00 94 1017.2
20260903154401 79 243 5.0 13.0 0.00 0.19 0.00 94 1016.9
20260903153423 79 239 2.0 10.0 0.00 0.19 0.00 95 1016.0
20260903152404 80 221 3.0 9.0 0.00 0.19 0.00 95 1016.2
20260903151403 79 109 1.0 7.0 0.00 0.19 0.00 96 1016.0
20260903150401 79 147 1.0 8.0 0.00 0.19 0.00 96 1015.9
20260903145404 78 132 2.0 8.0 0.00 0.19 0.00 97 1015.5
20260903144402 78 171 2.0 9.0 0.00 0.19 0.00 97 1015.4
20260903143403 78 155 1.0 9.0 0.00 0.19 0.00 98 1015.5
20260903142403 78 120 1.0 3.0 0.00 0.19 0.00 98 1015.3
20260903141402 77 92 1.0 6.0 0.00 0.19 0.00 99 1015.1
20260903140402 77 99 2.0 5.0 0.00 0.19 0.00 99 1015.1
20260903135403 76 118 1.0 10.0 0.00 0.19 0.00 99 1015.1
20260903134402 76 114 2.0 7.0 0.00 0.19 0.00 99 1014.9
20260903133404 76 70 2.0 5.0 0.00 0.19 0.00 99 1015.3
20260903132425 75 89 1.0 5.0 0.00 0.19 0.00 99 1015.7
20260903131403 75 116 2.0 4.0 0.00 0.19 0.00 99 1015.7
20260903130403 75 118 3.0 5.0 0.00 0.19 0.00 99 1016.2
20260903125422 75 117 2.0 6.0 0.00 0.19 0.00 99 1016.4
20260903124402 75 111 3.0 7.0 0.00 0.19 0.00 99 1016.5
20260903123401 75 81 1.0 3.0 0.00 0.19 0.00 99 1016.7
20260903122404 75 49 1.0 3.0 0.00 0.19 0.00 99 1016.8
20260903121406 75 49 0.0 2.0 0.00 0.19 0.00 99 1017.2
20260903120403 75 49 0.0 3.0 0.00 0.19 0.00 99 1017.2